When you browse on this site, cookies collect data to enhance your experience and personalize the content and advertising you see.
Visit our Privacy Policy to learn more. By continuing to use the site, you agree to this use of cookies and data.
  • în România
  • Lista ţărilor
  • Pe 7 zile
  • Temperatura apei
  • Hartă satelitară
  • Meteo pe hartă
  • Widget-uri
  • user-avatar
    Intrare

    Meteo pe oră la Arriate

    Astăzi, 18 Iulie, Joi

    Timp Temperatura Precipitaţii Vânt Presiune Umiditate
    00:00 +18°C° 0 mm 1 m/s 692 mmHg 59%
    01:00 +18°C° 0 mm 1 m/s 692 mmHg 62%
    02:00 +18°C° 0 mm 1 m/s 692 mmHg 65%
    03:00 +16°C° 0 mm 1 m/s 691 mmHg 67%
    04:00 +18°C° 0 mm 1 m/s 691 mmHg 66%
    05:00 +18°C° 0 mm 1 m/s 691 mmHg 65%
    06:00 +19°C° 0 mm 1 m/s 692 mmHg 62%
    07:00 +21°C° 0 mm 1 m/s 693 mmHg 52%
    08:00 +24°C° 0 mm 2 m/s 693 mmHg 43%
    09:00 +27°C° 0 mm 2 m/s 694 mmHg 33%
    10:00 +28°C° 0 mm 2 m/s 694 mmHg 30%
    11:00 +30°C° 0 mm 3 m/s 694 mmHg 27%
    12:00 +33°C° 0 mm 3 m/s 694 mmHg 23%
    13:00 +33°C° 0 mm 3 m/s 694 mmHg 23%
    14:00 +34°C° 0 mm 3 m/s 693 mmHg 23%
    15:00 +34°C° 0 mm 3 m/s 693 mmHg 23%
    16:00 +33°C° 0 mm 3 m/s 693 mmHg 25%
    17:00 +31°C° 0 mm 3 m/s 692 mmHg 27%
    18:00 +30°C° 0 mm 3 m/s 692 mmHg 29%
    19:00 +27°C° 0 mm 2 m/s 692 mmHg 36%
    20:00 +24°C° 0 mm 2 m/s 692 mmHg 44%
    21:00 +21°C° 0 mm 1 m/s 691 mmHg 51%
    22:00 +21°C° 0 mm 1 m/s 691 mmHg 46%
    23:00 +21°C° 0 mm 1 m/s 691 mmHg 42%

    Mâine, 19 Iulie, Vineri

    Timp Temperatura Precipitaţii Vânt Presiune Umiditate
    00:00 +20°C° 0 mm 1 m/s 691 mmHg 38%
    01:00 +20°C° 0 mm 1 m/s 691 mmHg 36%
    02:00 +20°C° 0 mm 1 m/s 691 mmHg 34%
    03:00 +18°C° 0 mm 2 m/s 691 mmHg 33%
    04:00 +18°C° 0 mm 2 m/s 691 mmHg 35%
    05:00 +19°C° 0 mm 2 m/s 691 mmHg 37%
    06:00 +19°C° 0 mm 2 m/s 691 mmHg 39%
    07:00 +23°C° 0 mm 2 m/s 692 mmHg 34%
    08:00 +26°C° 0 mm 3 m/s 692 mmHg 29%
    09:00 +30°C° 0 mm 4 m/s 693 mmHg 24%
    10:00 +32°C° 0 mm 4 m/s 693 mmHg 23%
    11:00 +33°C° 0 mm 5 m/s 693 mmHg 23%
    12:00 +34°C° 0 mm 5 m/s 693 mmHg 22%
    13:00 +34°C° 0 mm 5 m/s 692 mmHg 22%
    14:00 +34°C° 0 mm 5 m/s 692 mmHg 21%
    15:00 +35°C° 0 mm 5 m/s 691 mmHg 21%
    16:00 +34°C° 0 mm 4 m/s 691 mmHg 22%
    17:00 +33°C° 0 mm 3 m/s 691 mmHg 23%
    18:00 +33°C° 0 mm 3 m/s 691 mmHg 24%
    19:00 +28°C° 0 mm 2 m/s 690 mmHg 34%
    20:00 +25°C° 0 mm 2 m/s 690 mmHg 43%
    21:00 +21°C° 0 mm 2 m/s 690 mmHg 53%
    22:00 +21°C° 0 mm 2 m/s 690 mmHg 53%
    23:00 +21°C° 0 mm 1 m/s 690 mmHg 52%

    Poimâine, 20 Iulie, Sâmbătă

    Timp Temperatura Precipitaţii Vânt Presiune Umiditate
    00:00 +21°C° 0 mm 1 m/s 691 mmHg 52%
    01:00 +21°C° 0 mm 1 m/s 691 mmHg 51%
    02:00 +21°C° 0 mm 1 m/s 690 mmHg 49%
    03:00 +21°C° 0 mm 1 m/s 690 mmHg 48%
    04:00 +21°C° 0 mm 1 m/s 691 mmHg 46%
    05:00 +22°C° 0 mm 1 m/s 691 mmHg 45%
    06:00 +20°C° 0 mm 0 m/s 691 mmHg 44%
    07:00 +25°C° 0 mm 1 m/s 692 mmHg 39%
    08:00 +27°C° 0 mm 1 m/s 693 mmHg 34%
    09:00 +30°C° 0 mm 1 m/s 693 mmHg 28%
    10:00 +32°C° 0 mm 2 m/s 694 mmHg 27%
    11:00 +34°C° 0 mm 2 m/s 694 mmHg 26%
    12:00 +36°C° 0 mm 3 m/s 695 mmHg 24%
    13:00 +36°C° 0 mm 3 m/s 694 mmHg 24%
    14:00 +36°C° 0 mm 3 m/s 694 mmHg 23%
    15:00 +37°C° 0 mm 3 m/s 693 mmHg 23%
    16:00 +36°C° 0 mm 3 m/s 693 mmHg 26%
    17:00 +34°C° 0 mm 3 m/s 693 mmHg 29%
    18:00 +33°C° 0 mm 3 m/s 693 mmHg 33%
    19:00 +29°C° 0 mm 3 m/s 693 mmHg 44%
    20:00 +25°C° 0 mm 2 m/s 693 mmHg 55%
    21:00 +21°C° 0 mm 2 m/s 693 mmHg 66%
    22:00 +21°C° 0 mm 2 m/s 693 mmHg 66%
    23:00 +21°C° 0 mm 2 m/s 693 mmHg 67%

    21 Iulie, Duminică

    Timp Temperatura Precipitaţii Vânt Presiune Umiditate
    00:00 +21°C° 0 mm 2 m/s 693 mmHg 68%
    01:00 +21°C° 0 mm 1 m/s 693 mmHg 70%
    02:00 +21°C° 0 mm 1 m/s 693 mmHg 73%
    03:00 +21°C° 0 mm 1 m/s 692 mmHg 75%
    04:00 +21°C° 0 mm 1 m/s 693 mmHg 75%
    05:00 +21°C° 0 mm 1 m/s 693 mmHg 75%
    06:00 +21°C° 0 mm 1 m/s 693 mmHg 75%
    07:00 +24°C° 0 mm 1 m/s 694 mmHg 64%
    08:00 +27°C° 0 mm 2 m/s 695 mmHg 54%
    09:00 +29°C° 0 mm 2 m/s 696 mmHg 44%
    10:00 +31°C° 0 mm 2 m/s 696 mmHg 41%
    11:00 +33°C° 0 mm 3 m/s 696 mmHg 37%
    12:00 +35°C° 0 mm 3 m/s 696 mmHg 34%
    13:00 +35°C° 0 mm 3 m/s 696 mmHg 33%
    14:00 +36°C° 0 mm 3 m/s 696 mmHg 31%
    15:00 +36°C° 0 mm 3 m/s 695 mmHg 30%
    16:00 +35°C° 0 mm 3 m/s 695 mmHg 32%
    17:00 +34°C° 0 mm 3 m/s 695 mmHg 34%
    18:00 +33°C° 0 mm 3 m/s 694 mmHg 36%
    19:00 +29°C° 0 mm 2 m/s 694 mmHg 47%
    20:00 +26°C° 0 mm 2 m/s 694 mmHg 58%
    21:00 +23°C° 0 mm 2 m/s 694 mmHg 69%
    22:00 +21°C° 0 mm 2 m/s 694 mmHg 69%
    23:00 +22°C° 0 mm 1 m/s 694 mmHg 69%

    22 Iulie, Luni

    Timp Temperatura Precipitaţii Vânt Presiune Umiditate
    00:00 +22°C° 0 mm 1 m/s 694 mmHg 70%
    01:00 +21°C° 0 mm 1 m/s 694 mmHg 72%
    02:00 +21°C° 0 mm 1 m/s 694 mmHg 75%
    03:00 +21°C° 0 mm 1 m/s 693 mmHg 77%
    04:00 +21°C° 0 mm 1 m/s 693 mmHg 75%
    05:00 +20°C° 0 mm 2 m/s 694 mmHg 73%
    06:00 +20°C° 0 mm 2 m/s 694 mmHg 71%
    07:00 +24°C° 0 mm 2 m/s 694 mmHg 60%
    08:00 +27°C° 0 mm 3 m/s 695 mmHg 49%
    09:00 +29°C° 0 mm 4 m/s 696 mmHg 38%
    10:00 +32°C° 0 mm 4 m/s 696 mmHg 35%
    11:00 +33°C° 0 mm 4 m/s 696 mmHg 32%
    12:00 +34°C° 0 mm 4 m/s 696 mmHg 29%
    13:00 +34°C° 0 mm 4 m/s 696 mmHg 28%
    14:00 +35°C° 0 mm 4 m/s 695 mmHg 27%
    15:00 +35°C° 0 mm 5 m/s 695 mmHg 26%
    16:00 +34°C° 0 mm 4 m/s 694 mmHg 27%
    17:00 +33°C° 0 mm 4 m/s 694 mmHg 29%
    18:00 +32°C° 0 mm 4 m/s 694 mmHg 31%
    19:00 +28°C° 0 mm 3 m/s 694 mmHg 40%
    20:00 +25°C° 0 mm 3 m/s 694 mmHg 49%
    21:00 +21°C° 0 mm 2 m/s 693 mmHg 58%
    22:00 +21°C° 0 mm 2 m/s 693 mmHg 62%
    23:00 +21°C° 0 mm 1 m/s 693 mmHg 65%

    23 Iulie, Marţi

    Timp Temperatura Precipitaţii Vânt Presiune Umiditate
    00:00 +20°C° 0 mm 1 m/s 693 mmHg 69%
    01:00 +20°C° 0 mm 1 m/s 693 mmHg 71%
    02:00 +20°C° 0 mm 1 m/s 692 mmHg 74%
    03:00 +19°C° 0 mm 1 m/s 692 mmHg 76%
    04:00 +19°C° 0 mm 1 m/s 692 mmHg 74%
    05:00 +20°C° 0 mm 1 m/s 692 mmHg 72%
    06:00 +19°C° 0 mm 2 m/s 692 mmHg 69%
    07:00 +23°C° 0 mm 2 m/s 693 mmHg 58%
    08:00 +26°C° 0 mm 2 m/s 693 mmHg 47%
    09:00 +28°C° 0 mm 3 m/s 694 mmHg 36%
    10:00 +30°C° 0 mm 3 m/s 694 mmHg 32%
    11:00 +31°C° 0 mm 3 m/s 694 mmHg 28%
    12:00 +34°C° 0 mm 4 m/s 694 mmHg 24%
    13:00 +34°C° 0 mm 4 m/s 694 mmHg 23%
    14:00 +35°C° 0 mm 4 m/s 693 mmHg 22%
    15:00 +35°C° 0 mm 4 m/s 693 mmHg 21%
    16:00 +34°C° 0 mm 3 m/s 693 mmHg 24%
    17:00 +33°C° 0 mm 3 m/s 693 mmHg 27%
    18:00 +30°C° 0 mm 2 m/s 692 mmHg 30%
    19:00 +27°C° 0 mm 2 m/s 692 mmHg 40%
    20:00 +24°C° 0 mm 2 m/s 692 mmHg 51%
    21:00 +21°C° 0 mm 1 m/s 692 mmHg 61%
    22:00 +20°C° 0 mm 1 m/s 692 mmHg 62%
    23:00 +19°C° 0 mm 2 m/s 692 mmHg 62%
    Arată mai mult